Regional Weather Roundup
Issued by NWS Charleston, WV

Home | Current Version | Previous Version | Graphics & Text | Print | Product List | Glossary On
Versions: 1 2 3 4 5 6 7 8 9 10 11 12 13 14 15 16 17 18 19 20 21 22 23 24 25 26 27 28 29 30 31 32 33 34 35 36 37 38 39 40 41 42 43 44 45 46 47 48 49 50
000
ASUS41 KRLX 061310
RWRRLX
West Virginia Regional Weather Roundup
National Weather Service Charleston WV
900 AM EDT WED MAY 06 2015

Note: "fair" indicates few or no clouds below 12,000 feet with no
significant weather and/or obstructions to visibility.

WVZ003-061400-
Northern Panhandle of West Virginia

CITY           SKY/WX    TMP DP  RH WIND       PRES   REMARKS
WHEELING       SUNNY     63  59  87 CALM      30.24R FOG
$$

WVZ009-061400-
Northwest West Virginia

CITY           SKY/WX    TMP DP  RH WIND       PRES   REMARKS
PARKERSBURG    SUNNY     66  58  75 VRB3      30.26R
$$

WVZ006-061400-
Western West Virginia

CITY           SKY/WX    TMP DP  RH WIND       PRES   REMARKS
HUNTINGTON     CLOUDY    62  57  83 CALM      30.23S
$$

WVZ015-061400-
West Central West Virginia

CITY           SKY/WX    TMP DP  RH WIND       PRES   REMARKS
CHARLESTON     MOSUNNY   66  56  70 CALM      30.24S
$$

WVZ022-031-061400-
North Central West Virginia

CITY           SKY/WX    TMP DP  RH WIND       PRES   REMARKS
CLARKSBURG     SUNNY     66  58  75 CALM      30.25S
MORGANTOWN     SUNNY     66  56  70 CALM      30.26S
$$

WVZ025-035-042-045-061400-
Southern West Virginia

CITY           SKY/WX    TMP DP  RH WIND       PRES   REMARKS
BECKLEY        CLOUDY    66  53  63 S5        30.30R
LOGAN          PTSUNNY   64  57  77 CALM      30.23S
BLUEFIELD      CLOUDY    66  51  58 W5        30.32R
LEWISBURG      CLOUDY    60  56  84 CALM      30.30S
$$

WVZ047-061400-
Northern Mountains of West Virginia

CITY           SKY/WX    TMP DP  RH WIND       PRES   REMARKS
ELKINS         SUNNY     59  53  80 CALM      30.29F
$$

WVZ052-061400-
Eastern Panhandle of West Virginia

CITY           SKY/WX    TMP DP  RH WIND       PRES   REMARKS
MARTINSBURG    SUNNY     67  60  78 N7        30.25R
PETERSBURG     SUNNY     59  56  90 CALM      30.26S
$$


USA.gov is the U.S. government's official web portal to all federal, state and local government web resources and services.